Location: Cuzcurrita-R�o Tir�n
(42.5415°N, 2.9642°W)
Time: 01:37:27
(UTC+00:00)

Cosmos 1092 Rocket - Pass Details

Date: 17 January 2021
Orbit: 954 x 995 km, 83.0° (Epoch: 08 March)

Event Time Altitude Azimuth Distance (km) Brightness Sun altitude
Rises 19:05:28 0° 173° (S) 3,664 7.0 -21.5°
Reaches altitude 10° 19:08:01 10° 170° (S) 2,714 6.3 -22.0°
Maximum altitude 19:14:05 58° 92° (E) 1,116 3.9 -23.1°
Enters shadow 19:17:29 27° 24° (NNE) 1,784 5.1 -23.7°
